EZY2883 EGGD-LSGG

Flight info

Callsign EZY2883
Flight time N/A
Altitude 31000
Route YORQI DCT NUCHU L607 ALHAD DCT MID UL612 VEULE DCT PEKIM DCT PILUL/N0439F270 DCT PIMUP DCT PIXIS DCT PIBAT/N0412F230 DCT LUSAR
Aircraft A320/M-SDE3FGHIRWY/LB1

Departure

Time N/A
Airport Bristol Airport (EGGD)

Arrival

Time 2026-05-05 17:38
Airport Geneva International Airport (LSGG)
Time Latitude Longitude Altitude Speed Heading
2026-05-05 16:29 50.99560 -0.56253 30411 ft 444 kts 148°
2026-05-05 16:29 50.96991 -0.53520 30685 ft 444 kts 148°
2026-05-05 16:29 50.94421 -0.50790 30890 ft 445 kts 148°
2026-05-05 16:30 50.89304 -0.45354 30947 ft 441 kts 148°
2026-05-05 16:30 50.84208 -0.39940 30948 ft 440 kts 147°
2026-05-05 16:31 50.79116 -0.34546 30947 ft 440 kts 147°
2026-05-05 16:31 50.74021 -0.29178 30947 ft 440 kts 148°
2026-05-05 16:32 50.68917 -0.23820 30942 ft 440 kts 148°
2026-05-05 16:32 50.63851 -0.18505 30940 ft 439 kts 147°
2026-05-05 16:33 50.58762 -0.13175 30935 ft 439 kts 147°
2026-05-05 16:33 50.54542 -0.08763 30932 ft 438 kts 147°
2026-05-05 16:34 50.49462 -0.03478 30929 ft 438 kts 148°
2026-05-05 16:34 50.44387 0.01799 30917 ft 438 kts 147°
2026-05-05 16:35 50.39307 0.07055 30921 ft 437 kts 147°
2026-05-05 16:35 50.34233 0.12295 30922 ft 436 kts 147°
2026-05-05 16:36 50.29156 0.17537 30923 ft 436 kts 147°
2026-05-05 16:36 50.24085 0.22746 30915 ft 436 kts 147°
2026-05-05 16:37 50.19044 0.27900 30918 ft 435 kts 147°
2026-05-05 16:37 50.13990 0.33101 30915 ft 435 kts 147°
2026-05-05 16:38 50.08943 0.38289 30902 ft 434 kts 147°
2026-05-05 16:38 50.03900 0.43454 30900 ft 434 kts 147°
2026-05-05 16:39 49.98850 0.48598 30895 ft 434 kts 147°
2026-05-05 16:39 49.93788 0.53747 30893 ft 435 kts 147°
2026-05-05 16:40 49.88724 0.58895 30896 ft 435 kts 147°
2026-05-05 16:40 49.83941 0.64507 30887 ft 435 kts 137°
2026-05-05 16:41 49.79548 0.70926 30904 ft 434 kts 137°
2026-05-05 16:41 49.75154 0.77313 30889 ft 433 kts 137°
2026-05-05 16:42 49.70755 0.83674 30881 ft 432 kts 137°
2026-05-05 16:42 49.66363 0.90018 30858 ft 432 kts 137°
2026-05-05 16:43 49.61953 0.96371 30851 ft 433 kts 137°
2026-05-05 16:43 49.57570 1.02679 30841 ft 434 kts 137°
2026-05-05 16:44 49.53148 1.09022 30845 ft 434 kts 137°
2026-05-05 16:44 49.48718 1.15355 30852 ft 434 kts 137°
2026-05-05 16:45 49.44279 1.21682 30846 ft 435 kts 137°
2026-05-05 16:45 49.39851 1.27995 30844 ft 435 kts 137°
2026-05-05 16:46 49.35398 1.34316 30846 ft 436 kts 137°
2026-05-05 16:46 49.30941 1.40623 30845 ft 436 kts 137°
2026-05-05 16:47 49.26484 1.46921 30850 ft 436 kts 137°
2026-05-05 16:47 49.22020 1.53205 30848 ft 436 kts 137°
2026-05-05 16:48 49.17579 1.59439 30850 ft 435 kts 137°
2026-05-05 16:48 49.13114 1.65700 30837 ft 435 kts 137°
2026-05-05 16:49 49.08650 1.71942 30841 ft 435 kts 137°
2026-05-05 16:49 49.04175 1.78181 30843 ft 435 kts 136°
2026-05-05 16:50 48.99726 1.84368 30845 ft 435 kts 136°
2026-05-05 16:50 48.95254 1.90573 30839 ft 435 kts 136°
2026-05-05 16:51 48.90773 1.96767 30833 ft 435 kts 136°
2026-05-05 16:51 48.86289 2.02949 30832 ft 435 kts 136°
2026-05-05 16:52 48.81809 2.09122 30825 ft 434 kts 136°
2026-05-05 16:52 48.77331 2.15273 30823 ft 434 kts 136°
2026-05-05 16:53 48.72848 2.21410 30829 ft 434 kts 136°
2026-05-05 16:53 48.68400 2.27483 30832 ft 432 kts 136°
2026-05-05 16:54 48.63935 2.33570 30830 ft 432 kts 136°
2026-05-05 16:54 48.59458 2.39648 30825 ft 433 kts 136°
2026-05-05 16:55 48.54972 2.45726 30815 ft 433 kts 136°
2026-05-05 16:55 48.50477 2.51817 30807 ft 434 kts 136°
2026-05-05 16:56 48.45974 2.57894 30802 ft 434 kts 136°
2026-05-05 16:56 48.41475 2.63944 30814 ft 433 kts 137°
2026-05-05 16:57 48.36980 2.69984 30815 ft 433 kts 137°
2026-05-05 16:57 48.32476 2.76019 30799 ft 434 kts 137°
2026-05-05 16:58 48.28083 2.81895 30804 ft 435 kts 137°
2026-05-05 16:58 48.23409 2.87684 30804 ft 435 kts 141°
2026-05-05 16:59 48.18595 2.93113 30819 ft 436 kts 143°
2026-05-05 16:59 48.13729 2.98565 30799 ft 437 kts 142°
2026-05-05 17:00 48.08865 3.03994 30812 ft 436 kts 147°
2026-05-05 17:00 48.03407 3.07934 30815 ft 436 kts 156°
2026-05-05 17:01 47.97807 3.11460 30820 ft 436 kts 156°
2026-05-05 17:01 47.92214 3.14975 30833 ft 436 kts 157°
2026-05-05 17:02 47.86650 3.18464 30835 ft 436 kts 157°
2026-05-05 17:02 47.81065 3.21953 30834 ft 435 kts 157°
2026-05-05 17:03 47.75478 3.25431 30841 ft 435 kts 158°
2026-05-05 17:03 47.69896 3.28909 30840 ft 434 kts 157°
2026-05-05 17:04 47.64320 3.32375 30833 ft 434 kts 158°
2026-05-05 17:04 47.58748 3.35825 30826 ft 433 kts 158°
2026-05-05 17:05 47.53221 3.39240 30838 ft 432 kts 158°
2026-05-05 17:05 47.47667 3.42670 30838 ft 432 kts 158°
2026-05-05 17:06 47.42116 3.46095 30834 ft 432 kts 158°
2026-05-05 17:06 47.36571 3.49505 30833 ft 432 kts 158°
2026-05-05 17:07 47.31019 3.52909 30837 ft 432 kts 158°
2026-05-05 17:07 47.25458 3.56309 30833 ft 432 kts 158°
2026-05-05 17:08 47.19934 3.59673 30836 ft 433 kts 158°
2026-05-05 17:08 47.14366 3.63060 30838 ft 433 kts 158°
2026-05-05 17:09 47.08792 3.66454 30840 ft 433 kts 158°
2026-05-05 17:09 47.03218 3.69836 30845 ft 434 kts 158°
2026-05-05 17:10 46.97784 3.73651 30844 ft 435 kts 147°
2026-05-05 17:10 46.93431 3.79801 30845 ft 439 kts 127°
2026-05-05 17:11 46.90752 3.87802 30795 ft 442 kts 113°
2026-05-05 17:11 46.89653 3.91992 29991 ft 442 kts 114°
2026-05-05 17:11 46.88540 3.96188 28888 ft 444 kts 114°
2026-05-05 17:12 46.87414 4.00411 28205 ft 447 kts 114°
2026-05-05 17:12 46.86281 4.04652 27611 ft 449 kts 114°
2026-05-05 17:12 46.85146 4.08912 27008 ft 451 kts 114°
2026-05-05 17:12 46.84003 4.13195 26422 ft 453 kts 114°
2026-05-05 17:13 46.82854 4.17490 25860 ft 455 kts 114°
2026-05-05 17:13 46.81701 4.21786 25307 ft 453 kts 114°
2026-05-05 17:13 46.80630 4.26098 24842 ft 452 kts 109°
2026-05-05 17:13 46.79912 4.30594 24408 ft 458 kts 105°
2026-05-05 17:14 46.79252 4.35162 23982 ft 460 kts 105°
2026-05-05 17:14 46.78598 4.39666 23563 ft 459 kts 105°
2026-05-05 17:14 46.77935 4.44219 23091 ft 457 kts 105°
2026-05-05 17:14 46.77273 4.48745 22808 ft 455 kts 105°
2026-05-05 17:15 46.76609 4.53271 22874 ft 457 kts 105°
2026-05-05 17:15 46.75939 4.57810 22865 ft 458 kts 105°
2026-05-05 17:15 46.75265 4.62348 22869 ft 458 kts 105°
2026-05-05 17:15 46.74587 4.66893 22867 ft 458 kts 105°
2026-05-05 17:16 46.73910 4.71428 22871 ft 458 kts 105°
2026-05-05 17:16 46.73233 4.75969 22870 ft 458 kts 105°
2026-05-05 17:16 46.72554 4.80513 22870 ft 458 kts 105°
2026-05-05 17:16 46.71874 4.85051 22872 ft 458 kts 105°
2026-05-05 17:17 46.71196 4.89587 22864 ft 459 kts 105°
2026-05-05 17:17 46.70515 4.94135 22878 ft 460 kts 105°
2026-05-05 17:17 46.69830 4.98692 22876 ft 459 kts 105°
2026-05-05 17:17 46.69161 5.03133 22877 ft 437 kts 106°
2026-05-05 17:18 46.68525 5.07342 22881 ft 415 kts 106°
2026-05-05 17:18 46.67914 5.11355 22879 ft 400 kts 106°
2026-05-05 17:18 46.67308 5.15278 22882 ft 396 kts 107°
2026-05-05 17:18 46.66704 5.19179 22886 ft 395 kts 107°
2026-05-05 17:19 46.66103 5.23080 22888 ft 395 kts 107°
2026-05-05 17:19 46.65506 5.26979 22827 ft 395 kts 106°
2026-05-05 17:19 46.64906 5.30915 21935 ft 403 kts 106°
2026-05-05 17:19 46.64299 5.34879 21563 ft 396 kts 106°
2026-05-05 17:20 46.63907 5.37447 21341 ft 390 kts 106°
2026-05-05 17:20 46.63127 5.42555 20720 ft 384 kts 106°
2026-05-05 17:20 46.62552 5.46337 20218 ft 382 kts 104°
2026-05-05 17:20 46.62082 5.50131 19765 ft 379 kts 103°
2026-05-05 17:21 46.61648 5.53841 19638 ft 366 kts 103°
2026-05-05 17:21 46.61373 5.56221 19544 ft 353 kts 103°
2026-05-05 17:21 46.60985 5.59623 19423 ft 330 kts 103°
2026-05-05 17:22 46.60189 5.66835 18692 ft 300 kts 103°
2026-05-05 17:22 46.59859 5.69831 18153 ft 298 kts 103°
2026-05-05 17:22 46.59531 5.72799 17559 ft 296 kts 103°
2026-05-05 17:22 46.59301 5.74752 17167 ft 294 kts 107°
2026-05-05 17:23 46.58552 5.77450 16728 ft 286 kts 123°
2026-05-05 17:23 46.57607 5.79984 16435 ft 284 kts 125°
2026-05-05 17:23 46.56368 5.82139 16150 ft 274 kts 146°
2026-05-05 17:23 46.54807 5.83755 15538 ft 283 kts 149°
2026-05-05 17:24 46.53138 5.85423 14813 ft 298 kts 149°
2026-05-05 17:24 46.51417 5.87145 14369 ft 301 kts 149°
2026-05-05 17:24 46.49696 5.88877 14076 ft 303 kts 149°
2026-05-05 17:24 46.47956 5.90627 13634 ft 305 kts 149°
2026-05-05 17:25 46.46207 5.92386 13158 ft 307 kts 149°
2026-05-05 17:25 46.45041 5.93556 12842 ft 307 kts 149°
2026-05-05 17:25 46.42682 5.95917 12216 ft 308 kts 149°
2026-05-05 17:25 46.40976 5.97808 11745 ft 312 kts 137°
2026-05-05 17:26 46.39803 6.00488 11230 ft 321 kts 113°
2026-05-05 17:26 46.39465 6.03655 10659 ft 320 kts 89°
2026-05-05 17:26 46.40030 6.06739 10155 ft 317 kts 67°
2026-05-05 17:26 46.41028 6.09551 9604 ft 310 kts 63°
2026-05-05 17:27 46.42051 6.12242 9298 ft 294 kts 63°
2026-05-05 17:27 46.43021 6.14767 9153 ft 285 kts 63°
2026-05-05 17:27 46.43979 6.17268 8614 ft 281 kts 63°
2026-05-05 17:27 46.44941 6.19710 8101 ft 277 kts 58°
2026-05-05 17:28 46.46065 6.21961 7589 ft 274 kts 53°
2026-05-05 17:28 46.47221 6.24138 7116 ft 270 kts 53°
2026-05-05 17:28 46.48379 6.26291 6990 ft 271 kts 53°
2026-05-05 17:28 46.49537 6.28452 6987 ft 271 kts 53°
2026-05-05 17:29 46.50687 6.30614 6994 ft 271 kts 53°
2026-05-05 17:29 46.51824 6.32797 6990 ft 272 kts 60°
2026-05-05 17:29 46.52427 6.35332 6991 ft 264 kts 90°
2026-05-05 17:29 46.52139 6.37874 7002 ft 252 kts 118°
2026-05-05 17:30 46.51414 6.40143 6995 ft 249 kts 122°
2026-05-05 17:30 46.50524 6.42172 6979 ft 225 kts 144°
2026-05-05 17:30 46.49257 6.43127 6993 ft 193 kts 179°
2026-05-05 17:30 46.47979 6.43088 6994 ft 179 kts 191°
2026-05-05 17:31 46.46751 6.42851 6993 ft 177 kts 193°
2026-05-05 17:31 46.45554 6.42506 6992 ft 174 kts 204°
2026-05-05 17:31 46.44560 6.41567 6805 ft 172 kts 225°
2026-05-05 17:31 46.43722 6.40321 6611 ft 172 kts 225°
2026-05-05 17:32 46.42889 6.39080 6394 ft 171 kts 225°
2026-05-05 17:32 46.42060 6.37847 6169 ft 171 kts 225°
2026-05-05 17:32 46.41219 6.36600 5939 ft 175 kts 226°
2026-05-05 17:32 46.40369 6.35340 5710 ft 175 kts 226°
2026-05-05 17:33 46.39527 6.34091 5466 ft 172 kts 225°
2026-05-05 17:33 46.38684 6.32842 5232 ft 174 kts 225°
2026-05-05 17:33 46.37846 6.31602 5005 ft 174 kts 225°
2026-05-05 17:33 46.36999 6.30348 4768 ft 174 kts 225°
2026-05-05 17:34 46.36150 6.29093 4536 ft 175 kts 225°
2026-05-05 17:34 46.35302 6.27839 4300 ft 174 kts 226°
2026-05-05 17:34 46.34462 6.26597 4061 ft 171 kts 225°
2026-05-05 17:34 46.33650 6.25397 3842 ft 162 kts 225°
2026-05-05 17:35 46.32886 6.24270 3628 ft 154 kts 225°
2026-05-05 17:35 46.32139 6.23167 3429 ft 154 kts 225°
2026-05-05 17:35 46.31392 6.22064 3233 ft 152 kts 225°
2026-05-05 17:35 46.30644 6.20961 3021 ft 155 kts 224°
2026-05-05 17:36 46.29888 6.19846 2805 ft 155 kts 225°
2026-05-05 17:36 46.29130 6.18729 2596 ft 148 kts 224°
2026-05-05 17:36 46.28465 6.17729 2444 ft 131 kts 225°
2026-05-05 17:36 46.27829 6.16818 2195 ft 127 kts 225°
2026-05-05 17:37 46.27199 6.15889 1975 ft 132 kts 226°
2026-05-05 17:37 46.26552 6.14935 1871 ft 134 kts 224°
2026-05-05 17:37 46.25894 6.13951 1717 ft 137 kts 223°
2026-05-05 17:37 46.25218 6.12965 1499 ft 137 kts 223°
2026-05-05 17:38 46.24581 6.12034 1372 ft 121 kts 223°
2026-05-05 17:38 46.24136 6.11380 1374 ft 63 kts 225°
2026-05-05 17:38 46.23944 6.11105 1378 ft 22 kts 214°
2026-05-05 17:38 46.23816 6.11075 1380 ft 14 kts 171°
2026-05-05 17:39 46.23745 6.11088 1384 ft 8 kts 181°
2026-05-05 17:39 46.23712 6.11075 1386 ft 3 kts 204°
2026-05-05 17:39 46.23679 6.11041 1387 ft 10 kts 221°
2026-05-05 17:39 46.23637 6.10978 1388 ft 6 kts 225°
2026-05-05 17:40 46.23618 6.10953 1388 ft 1 kts 217°
2026-05-05 17:40 46.23613 6.10951 1389 ft 1 kts 198°
2026-05-05 17:40 46.23596 6.10959 1401 ft 3 kts 148°
2026-05-05 17:40 46.23577 6.10987 1397 ft 3 kts 136°
2026-05-05 17:41 46.23568 6.11001 1393 ft 3 kts 134°
2026-05-05 17:41 46.23562 6.11009 1393 ft 0 kts 134°